SCP
0 0 0 0 0 0 0 0 0 0 -0 0 0 0 0 0 0 0 0 0 0 0 0 0 0 0 0 0 0 0 0 0 0 0 0 0 0 0
0 0 0 -0 -0 -0 -0 -0 0 0 -0 0 0 0 0 0 0 0 -0 0 0 0 0 0 0 0 0 0 0 0 0 0 0 0 0 0 0 0
0 0 -0 -0 -0 -0 -0 -0 -0 0 0 0 0 0 0 0 0 -0 0 0 0 0 -0 0 0 0 0 0 0 0 0 0 0 0 0 0 0 0
-0 0 0 -0 -0 -0 -0 -0 0 0 0 0 0 0 0 0 0 -0 0 0 0 0 0 0 0 0 0 0 0 0 0 0 0 0 0 0 0 0
0 0 0 0 0 0 0 0 0 0 0 0 0 0 0 0 0 0 0 0 0 0 0 0 0 0 0 0 0 0 0 0 0 0 0 0 0 0
0 -0 0 -0 0 0 0 0 0 0 0 0 0 0 0 0 0 0 0 0 0 0 0 0 0 0 0 0 0 0 0 0 0 0 0 0 0 0
-0 -0 -0 0 0 0 0 0 0 0 0 0 0 0 0 0 0 0 0 0 0 0 0 0 0 0 0 0 0 0 0 0 0 0 0 0 0 0
-0 -0 0 0 0 0 0 0 0 0 0 0 0 0 0 0 0 0 0 0 0 0 0 0 0 0 0 0 0 0 0 0 0 0 0 0 0 0
-0 0 0 0 0 0 0 0 0 0 0 0 0 0 0 0 0 0 0 0 0 0 0 0 0 0 0 0 0 0 0 0 0 0 0 0 0 0
-0 -0 -0 0 0 0 0 0 0 0 0 0 0 0 0 0 0 0 0 0 0 0 0 0 0 0 0 0 0 0 0 0 0 0 0 0 0 0
-0 -0 0 0 0 0 0 0 0 0 0 0 -0 -0 -0 0 0 0 0 0 0 0 0 0 0 0 0 0 0 0 0 0 0 0 0 0 0 0
0 0 0 0 0 0 0 0 0 0 0 0 0 0 0 0 0 0 0 0 0 0 0 0 0 0 0 0 0 0 0 0 0 0 0 0 0 0
0 0 0 0 0 0 0 0 0 0 0 0 0 0 0 0 0 0 0 0 0 0 0 0 0 0 0 0 0 0 0 0 0 0 0 0 0 0
0 0 0 0 0 0 0 0 0 0 0 0 0 0 0 0 0 0 0 0 0 0 0 0 0 0 0 0 0 0 0 0 0 0 0 0 0 0
0 0 0 0 0 0 0 0 0 0 0 0 0 0 0 0 0 0 0 0 0 0 0 0 0 0 0 0 0 0 0 0 0 0 0 0 0 0
0 0 0 0 0 0 0 0 0 0 0 0 0 0 0 0 0 0 0 0 0 0 0 0 0 0 0 0 0 0 0 0 0 0 0 0 0 0
0 0 0 0 0 0 0 0 0 0 0 0 0 0 0 0 0 0 0 0 0 0 0 0 0 0 0 0 0 0 0 0 0 0 0 0 0 0
0 0 0 0 0 0 0 0 0 0 0 0 0 0 0 0 0 0 0 0 0 0 0 0 0 0 0 0 0 0 0 0 0 1 1 0 0 0
0 0 0 0 0 0 0 0 0 0 0 0 0 0 0 0 0 0 0 0 0 0 0 0 0 0 0 0 0 0 0 0 0 0 0 0 0 0
0 0 0 0 0 0 0 0 0 0 0 0 0 0 0 0 0 0 0 0 0 0 0 0 0 0 0 0 0 0 0 0 0 0 0 0 0 0
0 0 0 0 0 0 0 0 0 0 0 0 0 0 0 0 0 0 0 0 0 0 0 0 0 0 0 0 0 0 0 0 0 0 0 0 0 0
0 0 0 0 0 0 0 0 0 0 0 0 0 0 0 0 0 0 0 0 0 0 0 0 0 0 0 0 0 0 0 0 0 0 0 0 0 0
0 0 0 0 0 0 0 0 0 0 0 0 0 0 0 0 0 0 0 0 0 0 0 0 0 0 0 0 0 0 0 0 0 0 0 0 0 0
Wind_Speed_500mb
8 9 9 18 22 17 19 17 18 18 24 14 17 18 19 27 32 40 27 22 23 24 18 18 20 22 23 24 25 25 24 23 21 20 21 21 21 21
16 17 17 16 20 18 22 19 22 16 15 14 10 13 19 31 33 22 28 28 19 25 25 24 25 27 27 27 27 28 27 25 24 23 22 21 21 21
19 21 21 23 25 25 24 27 26 20 23 23 24 29 36 34 22 17 21 32 24 27 27 31 33 33 33 33 32 32 30 30 26 24 24 22 21 22
15 16 18 20 22 20 21 20 24 23 25 31 23 17 15 15 11 12 16 23 29 28 30 33 35 32 35 38 39 37 36 32 30 27 25 24 23 24
9 12 14 14 12 13 16 20 15 13 16 20 20 14 17 20 21 20 17 22 27 33 38 41 41 38 40 46 46 43 41 36 33 31 30 29 25 22
10 12 11 12 14 13 16 18 14 12 14 17 19 17 15 17 21 24 27 26 23 33 35 37 36 39 44 49 52 54 48 41 39 35 36 35 29 24
17 19 23 22 20 22 20 15 15 17 19 16 12 16 18 21 20 19 25 30 34 35 40 41 43 41 43 43 46 49 46 44 42 40 39 37 36 30
20 21 22 24 21 14 11 18 17 18 17 17 18 20 19 21 25 26 29 30 35 26 31 41 42 45 44 40 38 37 41 45 48 46 44 41 39 37
12 10 10 13 14 11 14 15 16 19 17 15 12 10 14 18 22 24 25 27 32 33 32 38 38 44 35 31 32 37 40 36 42 47 48 48 43 42
15 16 12 17 16 13 15 17 15 12 11 13 13 11 14 18 23 26 29 31 28 24 25 37 28 34 32 29 26 31 36 42 41 42 46 45 43 41
19 21 19 24 26 29 32 24 21 18 13 13 15 16 17 14 16 22 23 27 28 27 26 35 35 41 39 33 29 24 33 47 50 50 53 50 50 45
17 21 25 29 35 41 37 27 18 18 21 19 19 15 16 20 17 22 20 21 24 28 22 27 30 33 40 36 23 35 32 34 39 51 55 55 52 54
25 26 30 34 40 36 29 26 20 11 10 9 11 11 13 8 6 15 17 20 21 23 27 30 36 35 38 46 48 40 43 35 33 30 40 53 56 56
27 25 29 31 26 24 20 15 12 11 10 14 16 16 21 20 20 24 26 22 18 19 23 25 31 28 32 44 47 41 38 38 39 43 44 40 46 58
21 22 22 19 18 16 15 14 12 4 10 14 19 21 26 31 33 34 30 30 25 23 27 25 18 20 24 32 39 41 42 41 34 33 38 45 47 45
18 13 8 9 11 15 15 18 16 11 7 7 8 9 11 12 13 17 22 25 21 25 26 16 18 23 29 29 32 33 28 29 32 34 35 37 39 42
15 12 7 5 6 12 18 21 17 13 10 9 9 10 11 10 10 13 16 19 20 22 15 12 14 17 20 24 23 20 27 29 30 33 34 38 37 38
19 17 12 9 10 16 19 20 15 15 13 12 12 11 13 17 21 22 19 23 24 18 17 26 34 33 30 22 21 29 27 23 25 28 31 36 36 36
24 23 21 20 19 18 17 10 12 10 12 11 14 18 18 19 20 25 27 27 28 23 25 30 35 38 38 37 28 22 33 28 24 26 26 29 37 28
31 27 27 25 18 16 16 8 5 11 16 10 13 18 18 16 14 18 21 27 29 25 30 35 39 41 39 34 37 33 32 37 37 39 33 33 28 28
31 27 26 20 13 12 11 7 7 9 8 7 11 19 24 20 17 21 21 21 18 24 34 35 34 39 43 36 35 41 33 23 17 22 27 36 33 28
29 27 27 23 17 13 13 15 12 12 13 18 21 22 23 20 19 20 25 21 17 19 23 28 38 37 38 39 48 52 49 38 19 9 5 22 36 38
39 34 31 27 22 20 21 15 11 17 20 17 18 25 26 23 22 23 23 21 24 21 30 37 36 32 33 44 49 55 57 55 59 42 24 35 41 42
Wind_Direction_500mb
280 234 232 237 241 262 267 279 295 303 313 315 274 255 267 265 264 266 273 267 273 282 276 273 275 279 276 268 264 258 253 249 252 259 266 268 272 275
243 263 268 246 250 260 268 267 272 294 290 334 312 291 299 312 313 290 230 240 255 272 273 277 277 279 279 272 263 257 251 255 259 263 265 267 272 273
256 263 277 281 278 273 271 275 267 278 278 282 294 303 305 322 333 228 274 237 249 266 278 274 278 273 274 273 266 257 254 253 254 257 257 262 269 275
281 281 285 284 285 286 276 278 274 276 278 277 276 304 323 347 337 287 296 281 266 273 275 271 267 273 272 269 264 257 252 254 257 260 263 259 268 275
322 350 331 303 286 295 302 302 297 286 263 276 286 280 290 308 305 296 293 283 275 276 280 278 277 275 276 274 266 252 253 252 255 254 254 258 266 275
326 311 300 296 288 285 301 306 304 302 303 290 283 260 280 286 285 275 269 278 263 265 276 275 273 284 286 275 267 262 250 249 253 255 255 256 264 272
301 296 292 285 285 294 295 286 297 302 301 296 282 250 265 267 286 286 273 269 271 275 284 281 284 288 292 278 264 261 253 249 252 256 257 259 261 268
317 305 292 274 283 294 275 302 294 300 296 294 278 268 263 264 275 279 279 277 279 282 281 280 283 289 297 287 269 255 249 249 249 252 256 257 260 260
353 349 4 353 347 314 298 296 299 302 295 300 318 307 278 282 291 292 293 295 294 290 285 284 284 296 306 287 275 251 253 252 247 248 251 259 256 254
332 345 346 350 342 322 322 310 301 304 295 303 305 305 308 323 310 302 301 299 293 287 286 284 283 296 301 312 283 263 259 257 258 257 256 251 254 257
324 310 315 324 328 327 323 312 287 280 251 260 284 306 308 294 303 311 306 310 308 307 304 292 293 298 300 300 307 294 287 272 263 260 260 261 254 256
288 292 299 307 321 323 324 320 308 277 261 260 278 290 292 311 279 290 307 307 306 312 321 307 307 307 306 312 303 317 310 323 285 261 256 259 259 259
281 283 295 310 315 318 321 317 313 295 253 241 216 236 269 297 281 317 318 331 327 307 314 297 299 294 283 292 300 307 305 303 293 292 269 256 254 261
288 292 300 305 312 318 318 323 313 252 244 228 233 245 254 263 277 290 293 288 301 319 319 308 299 299 298 297 300 314 309 300 295 289 286 278 268 259
278 285 290 302 316 320 337 354 359 323 258 258 263 267 273 276 283 283 279 282 278 277 288 300 324 319 312 319 317 319 322 316 312 307 301 292 284 276
272 279 295 306 329 340 348 352 354 351 343 320 308 312 299 299 297 293 297 303 298 269 263 284 295 306 309 313 319 324 321 327 318 314 304 295 296 295
265 256 271 316 305 321 320 330 350 360 341 327 343 345 336 340 341 334 339 348 342 346 338 292 277 297 307 319 324 319 325 328 337 330 317 310 306 308
253 227 228 258 270 269 290 304 335 0 353 344 351 359 354 357 1 358 342 345 348 344 325 324 312 311 305 289 294 324 330 335 349 335 344 345 322 308
217 214 228 244 266 273 280 289 317 342 357 358 10 3 4 4 2 356 357 346 348 353 353 337 336 334 332 331 321 4 342 336 328 311 336 331 325 345
208 216 227 243 252 263 262 273 300 331 347 357 0 333 329 336 331 325 323 330 343 352 346 342 349 352 356 344 326 323 316 319 310 314 323 331 333 338
208 218 238 237 231 240 237 266 269 281 319 305 297 299 308 323 314 318 314 322 338 346 338 339 341 333 336 328 335 345 353 350 343 3 3 357 355 351
213 220 223 228 240 256 255 254 259 287 298 285 281 293 295 304 302 306 316 328 323 322 325 317 323 332 343 349 349 348 351 352 330 255 351 351 354 342
215 225 232 233 240 237 234 245 268 277 274 284 296 303 306 302 288 293 303 302 317 305 317 319 324 328 341 337 338 340 342 347 352 345 278 286 301 299
Wind_Speed_850mb
8 9 9 18 22 17 19 17 18 18 24 14 17 18 19 27 32 40 27 22 23 24 18 18 20 22 23 24 25 25 24 23 21 20 21 21 21 21
16 17 17 16 20 18 22 19 22 16 15 14 10 13 19 31 33 22 28 28 19 25 25 24 25 27 27 27 27 28 27 25 24 23 22 21 21 21
19 21 21 23 25 25 24 27 26 20 23 23 24 29 36 34 22 17 21 32 24 27 27 31 33 33 33 33 32 32 30 30 26 24 24 22 21 22
15 16 18 20 22 20 21 20 24 23 25 31 23 17 15 15 11 12 16 23 29 28 30 33 35 32 35 38 39 37 36 32 30 27 25 24 23 24
9 12 14 14 12 13 16 20 15 13 16 20 20 14 17 20 21 20 17 22 27 33 38 41 41 38 40 46 46 43 41 36 33 31 30 29 25 22
10 12 11 12 14 13 16 18 14 12 14 17 19 17 15 17 21 24 27 26 23 33 35 37 36 39 44 49 52 54 48 41 39 35 36 35 29 24
17 19 23 22 20 22 20 15 15 17 19 16 12 16 18 21 20 19 25 30 34 35 40 41 43 41 43 43 46 49 46 44 42 40 39 37 36 30
20 21 22 24 21 14 11 18 17 18 17 17 18 20 19 21 25 26 29 30 35 26 31 41 42 45 44 40 38 37 41 45 48 46 44 41 39 37
12 10 10 13 14 11 14 15 16 19 17 15 12 10 14 18 22 24 25 27 32 33 32 38 38 44 35 31 32 37 40 36 42 47 48 48 43 42
15 16 12 17 16 13 15 17 15 12 11 13 13 11 14 18 23 26 29 31 28 24 25 37 28 34 32 29 26 31 36 42 41 42 46 45 43 41
19 21 19 24 26 29 32 24 21 18 13 13 15 16 17 14 16 22 23 27 28 27 26 35 35 41 39 33 29 24 33 47 50 50 53 50 50 45
17 21 25 29 35 41 37 27 18 18 21 19 19 15 16 20 17 22 20 21 24 28 22 27 30 33 40 36 23 35 32 34 39 51 55 55 52 54
25 26 30 34 40 36 29 26 20 11 10 9 11 11 13 8 6 15 17 20 21 23 27 30 36 35 38 46 48 40 43 35 33 30 40 53 56 56
27 25 29 31 26 24 20 15 12 11 10 14 16 16 21 20 20 24 26 22 18 19 23 25 31 28 32 44 47 41 38 38 39 43 44 40 46 58
21 22 22 19 18 16 15 14 12 4 10 14 19 21 26 31 33 34 30 30 25 23 27 25 18 20 24 32 39 41 42 41 34 33 38 45 47 45
18 13 8 9 11 15 15 18 16 11 7 7 8 9 11 12 13 17 22 25 21 25 26 16 18 23 29 29 32 33 28 29 32 34 35 37 39 42
15 12 7 5 6 12 18 21 17 13 10 9 9 10 11 10 10 13 16 19 20 22 15 12 14 17 20 24 23 20 27 29 30 33 34 38 37 38
19 17 12 9 10 16 19 20 15 15 13 12 12 11 13 17 21 22 19 23 24 18 17 26 34 33 30 22 21 29 27 23 25 28 31 36 36 36
24 23 21 20 19 18 17 10 12 10 12 11 14 18 18 19 20 25 27 27 28 23 25 30 35 38 38 37 28 22 33 28 24 26 26 29 37 28
31 27 27 25 18 16 16 8 5 11 16 10 13 18 18 16 14 18 21 27 29 25 30 35 39 41 39 34 37 33 32 37 37 39 33 33 28 28
31 27 26 20 13 12 11 7 7 9 8 7 11 19 24 20 17 21 21 21 18 24 34 35 34 39 43 36 35 41 33 23 17 22 27 36 33 28
29 27 27 23 17 13 13 15 12 12 13 18 21 22 23 20 19 20 25 21 17 19 23 28 38 37 38 39 48 52 49 38 19 9 5 22 36 38
39 34 31 27 22 20 21 15 11 17 20 17 18 25 26 23 22 23 23 21 24 21 30 37 36 32 33 44 49 55 57 55 59 42 24 35 41 42
Wind_Direction_850mb
280 234 232 237 241 262 267 279 295 303 313 315 274 255 267 265 264 266 273 267 273 282 276 273 275 279 276 268 264 258 253 249 252 259 266 268 272 275
243 263 268 246 250 260 268 267 272 294 290 334 312 291 299 312 313 290 230 240 255 272 273 277 277 279 279 272 263 257 251 255 259 263 265 267 272 273
256 263 277 281 278 273 271 275 267 278 278 282 294 303 305 322 333 228 274 237 249 266 278 274 278 273 274 273 266 257 254 253 254 257 257 262 269 275
281 281 285 284 285 286 276 278 274 276 278 277 276 304 323 347 337 287 296 281 266 273 275 271 267 273 272 269 264 257 252 254 257 260 263 259 268 275
322 350 331 303 286 295 302 302 297 286 263 276 286 280 290 308 305 296 293 283 275 276 280 278 277 275 276 274 266 252 253 252 255 254 254 258 266 275
326 311 300 296 288 285 301 306 304 302 303 290 283 260 280 286 285 275 269 278 263 265 276 275 273 284 286 275 267 262 250 249 253 255 255 256 264 272
301 296 292 285 285 294 295 286 297 302 301 296 282 250 265 267 286 286 273 269 271 275 284 281 284 288 292 278 264 261 253 249 252 256 257 259 261 268
317 305 292 274 283 294 275 302 294 300 296 294 278 268 263 264 275 279 279 277 279 282 281 280 283 289 297 287 269 255 249 249 249 252 256 257 260 260
353 349 4 353 347 314 298 296 299 302 295 300 318 307 278 282 291 292 293 295 294 290 285 284 284 296 306 287 275 251 253 252 247 248 251 259 256 254
332 345 346 350 342 322 322 310 301 304 295 303 305 305 308 323 310 302 301 299 293 287 286 284 283 296 301 312 283 263 259 257 258 257 256 251 254 257
324 310 315 324 328 327 323 312 287 280 251 260 284 306 308 294 303 311 306 310 308 307 304 292 293 298 300 300 307 294 287 272 263 260 260 261 254 256
288 292 299 307 321 323 324 320 308 277 261 260 278 290 292 311 279 290 307 307 306 312 321 307 307 307 306 312 303 317 310 323 285 261 256 259 259 259
281 283 295 310 315 318 321 317 313 295 253 241 216 236 269 297 281 317 318 331 327 307 314 297 299 294 283 292 300 307 305 303 293 292 269 256 254 261
288 292 300 305 312 318 318 323 313 252 244 228 233 245 254 263 277 290 293 288 301 319 319 308 299 299 298 297 300 314 309 300 295 289 286 278 268 259
278 285 290 302 316 320 337 354 359 323 258 258 263 267 273 276 283 283 279 282 278 277 288 300 324 319 312 319 317 319 322 316 312 307 301 292 284 276
272 279 295 306 329 340 348 352 354 351 343 320 308 312 299 299 297 293 297 303 298 269 263 284 295 306 309 313 319 324 321 327 318 314 304 295 296 295
265 256 271 316 305 321 320 330 350 360 341 327 343 345 336 340 341 334 339 348 342 346 338 292 277 297 307 319 324 319 325 328 337 330 317 310 306 308
253 227 228 258 270 269 290 304 335 0 353 344 351 359 354 357 1 358 342 345 348 344 325 324 312 311 305 289 294 324 330 335 349 335 344 345 322 308
217 214 228 244 266 273 280 289 317 342 357 358 10 3 4 4 2 356 357 346 348 353 353 337 336 334 332 331 321 4 342 336 328 311 336 331 325 345
208 216 227 243 252 263 262 273 300 331 347 357 0 333 329 336 331 325 323 330 343 352 346 342 349 352 356 344 326 323 316 319 310 314 323 331 333 338
208 218 238 237 231 240 237 266 269 281 319 305 297 299 308 323 314 318 314 322 338 346 338 339 341 333 336 328 335 345 353 350 343 3 3 357 355 351
213 220 223 228 240 256 255 254 259 287 298 285 281 293 295 304 302 306 316 328 323 322 325 317 323 332 343 349 349 348 351 352 330 255 351 351 354 342
215 225 232 233 240 237 234 245 268 277 274 284 296 303 306 302 288 293 303 302 317 305 317 319 324 328 341 337 338 340 342 347 352 345 278 286 301 299